YO7MGN Weather Reports


time (UTC)temp
C
wind
direction
speed
KPH
gust
KPH
rain 1hr
cm
rain 24hr
cm
rain mn
cm
humidity
%
barometer
mb
20260507130020 23 174 0.0 0.0 0.00 0.00 0.00 53 1015.0
20260507124619 23 179 0.0 0.0 0.00 0.00 0.00 51 1015.1
20260507123026 23 175 0.0 0.0 0.00 0.00 0.00 51 1015.2
20260507121519 23 110 0.0 0.0 0.00 0.00 0.00 51 1015.2
20260507120018 23 172 0.0 0.0 0.00 0.00 0.00 51 1015.3
20260507114517 23 175 0.0 0.0 0.00 0.00 0.00 50 1015.3
20260507113016 23 172 0.0 0.0 0.00 0.00 0.00 49 1015.3
20260507111515 23 171 0.0 0.0 0.00 0.00 0.00 49 1015.4
20260507110013 23 207 0.0 0.0 0.00 0.00 0.00 48 1015.4
20260507104512 23 116 0.0 0.0 0.00 0.00 0.00 50 1015.5
20260507103012 23 148 0.0 0.0 0.00 0.00 0.00 47 1015.6
20260507101511 23 28 0.0 0.0 0.00 0.00 0.00 47 1015.7
20260507100009 22 167 0.0 0.0 0.00 0.00 0.00 47 1015.7
20260507094506 22 155 0.0 0.0 0.00 0.00 0.00 50 1015.7
20260507093005 22 146 0.0 0.0 0.00 0.00 0.00 50 1015.6
20260507091505 22 145 0.0 0.0 0.00 0.00 0.00 50 1015.7
20260507090006 22 177 0.0 0.0 0.00 0.00 0.00 50 1015.6
20260507084502 22 126 0.0 0.0 0.00 0.00 0.00 50 1015.6
20260507083002 22 134 0.0 0.0 0.00 0.00 0.00 50 1015.5
20260507081558 21 5 0.0 0.0 0.00 0.00 0.00 52 1015.5
20260507080056 21 5 0.0 0.0 0.00 0.00 0.00 53 1015.5
20260507074554 21 5 0.0 0.0 0.00 0.00 0.00 54 1015.4
20260507073103 21 360 0.0 0.0 0.00 0.00 0.00 52 1015.5
20260507071550 20 11 0.0 0.0 0.00 0.00 0.00 54 1015.5
20260507070055 19 5 0.0 0.0 0.00 0.00 0.00 55 1015.5
20260507064550 18 360 0.0 0.0 0.00 0.00 0.00 56 1015.5
20260507063039 17 40 0.0 1.6 0.00 0.00 0.00 59 1015.5
20260507061538 17 342 0.0 0.0 0.00 0.00 0.00 58 1015.6
20260507060034 16 17 0.0 4.8 0.00 0.00 0.00 59 1015.5
20260507054533 16 360 0.0 4.8 0.00 0.00 0.00 63 1015.4
20260507053031 15 355 0.0 8.0 0.00 0.00 0.00 64 1015.2
20260507051530 15 342 0.0 1.6 0.00 0.00 0.00 65 1015.1
20260507050031 15 342 0.0 1.6 0.00 0.00 0.00 65 1015.1
20260507044529 15 158 0.0 0.0 0.00 0.00 0.00 67 1015.1
20260507043026 14 159 0.0 0.0 0.00 0.00 0.00 68 1014.7
20260507041523 13 159 0.0 0.0 0.00 0.00 0.00 69 1014.5
20260507040020 13 159 0.0 1.6 0.00 0.00 0.00 69 1014.4
20260507034520 13 33 0.0 0.0 0.00 0.00 0.00 69 1014.1
20260507033019 13 25 0.0 0.0 0.00 0.00 0.00 69 1013.9
20260507031515 13 19 0.0 1.6 0.00 0.00 0.00 70 1013.8
20260507030014 13 12 0.0 3.2 0.00 0.00 0.00 70 1013.7
20260507024513 14 5 0.0 1.6 0.00 0.00 0.00 71 1014.0
20260507023011 14 11 0.0 3.2 0.00 0.00 0.00 72 1013.9
20260507021510 14 27 0.0 1.6 0.00 0.00 0.00 72 1013.9
20260507020011 14 9 0.0 0.0 0.00 0.00 0.00 72 1013.8
20260507014509 14 5 0.0 0.0 0.00 0.00 0.00 72 1013.8
20260507013006 14 25 0.0 0.0 0.00 0.00 0.00 72 1013.8
20260507011514 15 25 0.0 1.6 0.00 0.00 0.00 72 1013.6
20260507010003 15 15 0.0 0.0 0.00 0.00 0.00 72 1013.5
20260507004500 15 10 0.0 1.6 0.00 0.00 0.00 72 1013.3
20260507003111 15 10 0.0 3.2 0.00 0.00 0.00 72 1013.2
20260507001603 15 360 0.0 1.6 0.00 0.00 0.00 72 1013.0
20260507000057 15 360 0.0 3.2 0.00 0.00 0.00 72 1013.0
20260506234605 15 339 0.0 1.6 0.00 0.00 0.00 71 1013.0
20260506233056 16 47 0.0 1.6 0.00 0.00 0.00 70 1013.0
20260506231555 16 54 0.0 1.6 0.00 0.00 0.00 69 1012.8
20260506230047 16 12 0.0 1.6 0.00 0.00 0.00 67 1013.0
20260506224545 17 360 0.0 1.6 0.00 0.00 0.00 66 1013.0
20260506223042 17 360 0.0 0.0 0.00 0.00 0.00 63 1013.0
20260506221537 18 5 0.0 0.0 0.00 0.00 0.00 60 1013.0
20260506220037 18 360 0.0 0.0 0.00 0.00 0.00 58 1013.1
20260506214534 18 5 0.0 0.0 0.00 0.00 0.00 57 1013.0
20260506213037 19 360 0.0 0.0 0.00 0.00 0.00 56 1013.0
20260506211528 19 5 0.0 0.0 0.00 0.00 0.00 56 1012.9
20260506210032 20 5 0.0 0.0 0.00 0.00 0.00 55 1012.9
20260506204526 20 5 0.0 0.0 0.00 0.00 0.00 55 1013.0
20260506203034 20 360 0.0 0.0 0.00 0.00 0.00 55 1013.0
20260506201526 20 360 0.0 0.0 0.00 0.00 0.00 56 1012.9
20260506200025 20 355 0.0 0.0 0.00 0.00 0.00 57 1012.9
20260506194525 20 355 0.0 0.0 0.00 0.00 0.00 58 1012.9
20260506193024 20 355 0.0 0.0 0.00 0.00 0.00 57 1012.7
20260506191523 21 355 0.0 0.0 0.00 0.00 0.00 56 1012.7
20260506190022 21 355 0.0 0.0 0.00 0.00 0.00 55 1012.6
20260506184522 21 355 0.0 0.0 0.00 0.00 0.00 53 1012.5
20260506183022 22 355 0.0 0.0 0.00 0.00 0.00 53 1012.3
20260506181521 22 355 0.0 0.0 0.00 0.00 0.00 51 1012.2
20260506180121 23 355 0.0 0.0 0.00 0.00 0.00 50 1012.0
20260506174521 23 355 0.0 0.0 0.00 0.00 0.00 50 1011.8
20260506173022 24 355 0.0 0.0 0.00 0.00 0.00 48 1011.7
20260506171520 24 355 0.0 0.0 0.00 0.00 0.00 46 1011.6
20260506170019 25 351 0.0 0.0 0.00 0.00 0.00 45 1011.6
20260506164519 25 355 0.0 0.0 0.00 0.00 0.00 45 1011.5
20260506163026 26 351 0.0 0.0 0.00 0.00 0.00 43 1011.4
20260506161518 26 15 0.0 0.0 0.00 0.00 0.00 41 1011.4
20260506160017 27 10 0.0 0.0 0.00 0.00 0.00 40 1011.4
20260506154515 27 360 0.0 0.0 0.00 0.00 0.00 40 1011.5
20260506153014 28 5 0.0 0.0 0.00 0.00 0.00 39 1011.6
20260506151514 28 5 0.0 0.0 0.00 0.00 0.00 37 1011.6
20260506150013 28 355 0.0 0.0 0.00 0.00 0.00 31 1011.7
20260506144511 29 173 0.0 0.0 0.00 0.00 0.00 30 1011.7
20260506143021 29 177 0.0 0.0 0.00 0.00 0.00 30 1011.8
20260506141509 29 351 0.0 0.0 0.00 0.00 0.00 24 1011.9
20260506140006 29 306 0.0 0.0 0.00 0.00 0.00 26 1012.0
20260506134506 28 55 0.0 0.0 0.00 0.00 0.00 29 1012.1
20260506133006 29 178 0.0 0.0 0.00 0.00 0.00 29 1012.1
20260506131506 29 173 0.0 0.0 0.00 0.00 0.00 31 1012.3